{"data":{"norad_id":65745,"epoch":"2026-09-20T22:20:06.568512Z","epoch_age_seconds":71520,"freshness":"FRESH","line1":"1 65745U 25216M   26263.93063158  .00012355  00000+0  37625-3 0  9998","line2":"2 65745  53.1581 144.0463 0000970  75.7445 284.3665 15.34395591 56439","mean_motion":15.34395591,"eccentricity":9.7e-5,"inclination_deg":53.1581,"raan_deg":144.0463,"arg_perigee_deg":75.7445,"mean_anomaly_deg":284.3665,"bstar":0.00037625,"rev_number":5643,"period_min":93.848027747624,"perigee_km":462.0527819412,"apogee_km":463.37990749008,"semimajor_km":6840.8533447156,"source":"CELESTRAK","updated_at":"2026-09-21T09:00:35.709044Z"}}